Regional Weather Roundup
Issued by NWS

Home | Current Version | Previous Version | Graphics & Text | Print | Product List | Glossary On
Versions: 1 2 3 4 5 6 7 8 9 10 11 12 13 14 15 16 17 18 19 20 21 22 23 24 25 26 27 28 29 30 31 32 33 34 35 36 37 38 39 40 41 42 43 44 45 46 47 48 49 50
000
ASUS43 KIND 270659
RWRIN

WEATHER ROUNDUP FOR INDIANA
NATIONAL WEATHER SERVICE INDIANAPOLIS IN
300 AM EDT TUE JUN 27 2017

NOTE: "FAIR" INDICATES FEW OR NO CLOUDS BELOW 12,000 FEET WITH NO
SIGNIFICANT WEATHER AND/OR OBSTRUCTIONS TO VISIBILITY.

* - STATION DOES NOT REPORT WEATHER SUCH AS PRECIPITATION OR FOG.

+ - STATION NOT QUALITY CONTROLLED BY THE NATIONAL WEATHER SERVICE.
    USE DATA WITH CAUTION...ESPECIALLY DEWPOINT AND RELATIVE
    HUMIDITY OBSERVATIONS.

INZ001>003-010>013-019-020-270800-
NORTHWEST INDIANA

CITY           SKY/WX    TMP DP  RH WIND       PRES   REMARKS
GARY /AIRPORT/ CLEAR     55  44  67 W5        30.10S
KNOX *+        CLEAR     52  43  71 W7        30.08S
MICHIGAN CITY+ MOCLDY    57  50  77 N6        30.10R
MONTICELLO +   CLEAR     52  50  94 CALM      30.09S

$$

LMZ046-743>745-270800-
SOUTHERN LAKE MICHIGAN

STATION/POSITION TIME  TEMP    WIND        PRES    WAVE
                       AIR SEA DIR/SP/G            HT
                 (UTC) (F)     (DEG/KT/KT) (MB)    (FT)
BURNS HARBOR     0640   62     340/ 12/ 15 1019.3S
MICHIGAN CITY    0630   60     310/ 15/ 17   N/A
5NW MICH CITY    0650   61 65  330/ 14/ 19   N/A     4

$$

INZ004-005-014>016-021>024-270800-
NORTH CENTRAL INDIANA

CITY           SKY/WX    TMP DP  RH WIND       PRES   REMARKS
GOSHEN         MOCLDY    52  46  80 W5        30.07S
SOUTH BEND     CLEAR     52  48  86 NW5       30.08S

$$

INZ006>009-017-018-025>027-270800-
NORTHEAST INDIANA

CITY           SKY/WX    TMP DP  RH WIND       PRES   REMARKS
FORT WAYNE     PTCLDY    52  47  83 W6        30.07S
KENDALLVILLE + PTCLDY    50  46  85 W3        30.07S

$$

INZ028-029-035-036-043>045-051>053-270800-
WEST CENTRAL INDIANA

CITY           SKY/WX    TMP DP  RH WIND       PRES   REMARKS
CRAWFORDSVL +  CLEAR     49  49 100 CALM      30.11S
GREENCASTLE +  CLEAR     50  48  93 CALM      30.12S
LAFAYETTE      FOG       50  50 100 CALM      30.10F VSB 1/4
TERRE HAUTE    PTCLDY    54  50  86 CALM      30.12S

$$

INZ030>032-037>040-046>048-054>057-064-065-270800-
CENTRAL INDIANA

CITY           SKY/WX    TMP DP  RH WIND       PRES   REMARKS
GREENWOOD *+   PTCLDY    55  49  79 W5        30.11F
INDIANAPOLIS   PTCLDY    53  49  86 W6        30.11S
-EAGLE CREEK   CLEAR     56  50  80 NW5       30.10S
KOKOMO +       CLEAR     53  50  89 W3        30.10S
MT COMFORT *+  CLEAR     52  50  93 W6        30.10F
SHELBYVILLE    CLEAR     58  48  69 W8        30.10S

$$

INZ033-034-041-042-049-050-058-059-270800-
EAST CENTRAL INDIANA

CITY           SKY/WX    TMP DP  RH WIND       PRES   REMARKS
MUNCIE         CLEAR     54  51  90 SW5       30.09S
RICHMOND +     CLEAR     52  48  87 W7        30.10S

$$

INZ060-061-067>069-081>083-085>088-270800-
SOUTHWEST INDIANA

CITY           SKY/WX    TMP DP  RH WIND       PRES   REMARKS
EVANSVILLE     CLEAR     59  51  75 CALM      30.12S
HUNTINGBURG *+ CLEAR     57  55  93 CALM      30.12S

$$

INZ062-063-066-070>080-084-089>092-270800-
SOUTH CENTRAL AND SOUTHEAST INDIANA

CITY           SKY/WX    TMP DP  RH WIND       PRES   REMARKS
BLOOMINGTON    CLEAR     55  49  80 CALM      30.11F
MADISON *+     CLEAR     54  52  94 CALM      30.12S
SEYMOUR +      CLEAR     57  52  82 CALM      30.10F

$$




USA.gov is the U.S. government's official web portal to all federal, state and local government web resources and services.